Regional Weather Roundup
Issued by NWS

Home | Current Version | Previous Version | Graphics & Text | Print | Product List | Glossary On
Versions: 1 2 3 4 5 6 7 8 9 10 11 12 13 14 15 16 17 18 19 20 21 22 23 24 25 26 27 28 29 30 31 32 33 34 35 36 37 38 39 40 41 42 43 44 45 46 47 48 49 50
000
ASUS43 KLOT 210300
RWRIL

ILLINOIS REGIONAL WEATHER ROUNDUP
NATIONAL WEATHER SERVICE CHICAGO/ROMEOVILLE IL
1000 PM CDT MON OCT 20 2014

NOTE: "FAIR" INDICATES FEW OR NO CLOUDS BELOW 12,000 FEET WITH NO
SIGNIFICANT WEATHER AND/OR OBSTRUCTIONS TO VISIBILITY.

* THESE STATIONS ARE NOT UNDER NWS QUALITY CONTROL. THEY ALSO MAY NOT
  REPORT WEATHER SUCH AS PRECIPITATION OR FOG.

ILZ001-002-007-009-015-016-024-210400-
NORTHWEST ILLINOIS

CITY           SKY/WX    TMP DP  RH WIND       PRES   REMARKS
MOLINE         CLEAR     48  42  80 CALM      30.00R
STERLING*      PTCLDY    48  39  71 CALM      30.02R
$$

ILZ003-004-008-010-011-017-018-210400-
NORTH CENTRAL ILLINOIS

CITY           SKY/WX    TMP DP  RH WIND       PRES   REMARKS
ROCKFORD       MOCLDY    51  41  68 NE6       30.04R
$$

ILZ005-006-012>014-019>023-210400-
NORTHEAST ILLINOIS

CITY           SKY/WX    TMP DP  RH WIND       PRES   REMARKS
CHICAGO-OHARE  MOCLDY    53  41  63 N8        29.99R
CHICAGO-MIDWAY MOCLDY    55  42  61 N10       29.99R
AURORA         CLOUDY    53  41  63 N8        30.01R
WAUKEGAN       CLOUDY    51  42  71 NW6       29.99S
DUPAGE AIRPORT CLOUDY    53  41  63 N6        30.00R
WHEELING       CLOUDY    54  42  64 N8        30.01S
NORTHERLY ISL    N/A     54  41  61 N14         N/A
$$

LMZ740>746-210400-
SOUTHERN LAKE MICHIGAN

STATION/POSITION SKY/WX   TEMP    WIND        PRES    VSBY  WAVE
                          AIR SEA DIR/SP/G                  HT/PER
                          (F)     (DEG/KT/KT) (MB)    (MI)  (FT/S)
SOUTHERN BUOY              52 55  340/ 12/ 16 1015.0R         3/ 5
WAUKEGAN HARBOR            53     330/  7/ 11   N/A
HARRISON CRIB              54     340/ 18/ 21   N/A
BURNHAM HARBOR             54     330/ 11/ 16   N/A
MICHIGAN CITY              53     340/ 23/ 25   N/A
$$

ILZ025>027-034>036-040-047-049-050-058-095>099-210400-
WEST-CENTRAL ILLINOIS

CITY           SKY/WX    TMP DP  RH WIND       PRES   REMARKS
QUINCY         CLEAR     54  43  66 W5        30.02R
$$

ILZ028>032-037-038-041>044-048-051>054-059>061-210400-
CENTRAL ILLINOIS

CITY           SKY/WX    TMP DP  RH WIND       PRES   REMARKS
DECATUR        CLEAR     53  44  71 NW5       29.99R
PEORIA         CLEAR     50  44  80 CALM      30.00R
SPRINGFIELD    CLEAR     50  43  77 SW6       30.00R
TAYLORVILLE    NOT AVBL
$$

ILZ033-039-045-046-055>057-062-063-210400-
EAST-CENTRAL ILLINOIS

CITY           SKY/WX    TMP DP  RH WIND       PRES   REMARKS
CHAMPAIGN      MOCLDY    50  44  80 N6        29.98R
MATTOON        CLEAR     52  43  71 W6        29.98R
$$

ILZ079-100>102-210400-
SOUTHWEST ILLINOIS

CITY           SKY/WX    TMP DP  RH WIND       PRES   REMARKS
ALTON          CLEAR     52  43  71 W5        30.02R
BELLEVILLE     CLEAR     54  46  73 CALM      30.02R
CAHOKIA*       CLEAR     53  46  77 CALM      30.03R
$$

ILZ064>066-069>071-074>076-080>082-084>086-088>090-092>094-210400-
SOUTH-CENTRAL ILLINOIS

CITY           SKY/WX    TMP DP  RH WIND       PRES   REMARKS
CARBONDALE     CLEAR     55  44  66 N6        30.02R
MT. VERNON     CLEAR     48  43  81 CALM      30.02R
$$

ILZ067-068-072-073-078-083-087-091-210400-
SOUTHEAST ILLINOIS

CITY           SKY/WX    TMP DP  RH WIND       PRES   REMARKS
LAWRENCEVILLE  CLEAR     55  45  68 W6        29.98R
$$

ABBREVIATIONS USED IN REMARKS
   TC - TEMPERATURE IN CELSIUS
  WCI - WIND CHILL INDEX
   HX - HEAT INDEX
  VSB - VISIBILITY
$$




USA.gov is the U.S. government's official web portal to all federal, state and local government web resources and services.